Regional Weather Roundup
Issued by NWS

Home | Current Version | Previous Version | Text Only | Print | Product List | Glossary On
Versions: 1 2 3 4 5 6 7 8 9 10 11 12 13 14 15 16 17 18 19 20 21 22 23 24 25 26 27 28 29 30 31 32 33 34 35 36 37 38 39 40 41 42 43 44 45 46 47 48 49 50
000
ASUS44 KFWD 060810
RWRTX
NORTH TEXAS HOURLY WEATHER ROUNDUP
NATIONAL WEATHER SERVICE FORT WORTH TX
300 AM CDT WED MAY 06 2015

NOTE: "FAIR" INDICATES FEW OR NO CLOUDS BELOW 12,000 FEET WITH NO
SIGNIFICANT WEATHER AND/OR OBSTRUCTIONS TO VISIBILITY.

TXZ118-119-060900-
DALLAS/FORT WORTH METROPLEX

CITY           SKY/WX    TMP DP  RH WIND       PRES   REMARKS
DFW AIRPORT    MOCLDY    68  67  96 SE18G25   29.92F
DALLAS LOVE    LGT RAIN  70  67  90 SE21      29.94F FOG
FTW MEACHAM    CLOUDY    70  68  93 SE13      29.93S
DAL-EXECUTIVE  RAIN      68  67  96 SE12      29.94F FOG
FTW-ALLIANCE   LGT RAIN  68  68 100 S14G20    29.92F
FTW-NAS-JRB    CLOUDY    70  68  93 S12       29.93S THUNDER
FTW-SPINKS     CLOUDY    70  67  92 SE6       29.95S
ARLINGTON      LGT RAIN  70  66  87 SE16      29.93F
GRAND PRAIRIE  CLOUDY    69  69 100 SE13G18   29.95S
ADDISON        LGT RAIN N/A N/A N/A S20G26    29.95F
MESQUITE       CLOUDY    68  66  94 SE10      29.97S
LANCASTER      CLOUDY    68  65  90 SE6       29.98R
$$

TXZ091>094-102>105-117-120-121-131>134-060900-
NORTH CENTRAL TEXAS

CITY           SKY/WX    TMP DP  RH WIND       PRES   REMARKS
SHRMAN/DENISON CLOUDY    69  68  97 SE13G22   29.97S
GAINESVILLE    HVY RAIN  64  62  92 SE21G31   29.96S
BOWIE          MOCLDY    67  64  90 SE12G18   29.91F
BRIDGEPORT     MOCLDY    68  68 100 S8        29.93S
DECATUR        CLOUDY    67  66  96 S14G21    29.93F
DENTON         CLOUDY    68  67  96 S13       29.93F
MCKINNEY       LGT RAIN  69  66  90 S21G28    29.94F
GREENVILLE     LGT RAIN  70  64  83 S12G20    29.99S
ROCKWALL       CLOUDY    68  67  96 S10G20    29.96S
TERRELL        CLOUDY    72  66  81 S15       29.97S
WAXAHACHIE     RAIN      68  68 100 E6        29.97F
CLEBURNE       CLOUDY    70  70 100 SE15G21   29.96S
GRANBURY         N/A     71  67  88 SE9       29.94S
$$

TXZ083>090-098>101-113>116-127>130-139>142-154-155-060900-
WESTERN NORTH TEXAS

CITY           SKY/WX    TMP DP  RH WIND       PRES   REMARKS
WICHITA FALLS  CLOUDY    68  65  90 S12       29.87S
WF-KICKAPOO    CLOUDY    69  65  88 SE9       29.89S
VERNON         CLOUDY    65  59  81 S10       29.84F
ABILENE        CLEAR     67  63  87 S13       29.88F
ABILENE-DYESS  CLEAR     67  64  92 S13G21    29.87F
BRECKENRIDGE   PTCLDY    70  64  82 S14G21    29.88F
GRAHAM         CLOUDY    67  65  90 SE10G17   29.87F
MINERAL WELLS  CLOUDY    67  65  93 SE9       29.91S
STEPHENVILLE   CLOUDY    68  64  89 S7        29.97R
COMANCHE       CLOUDY    68  68 100 SE6       29.93F
BROWNWOOD      CLOUDY    68  66  94 SE9       29.92F
COLEMAN        CLOUDY    68  66  94 SE6       29.92F
BRADY          CLOUDY    68  66  94 SE7       29.90F
$$

TXZ143>147-156>162-174-175-060900-
CENTRAL TEXAS

CITY           SKY/WX    TMP DP  RH WIND       PRES   REMARKS
WACO           RAIN      70  68  93 SE16      29.94F FOG
WACO-MCGREGOR  MOCLDY    70  63  78 S10       29.96S
HILLSBORO      DRIZZLE   69  66  90 SE14      29.95S
CORSICANA      MOCLDY    71  66  84 SE12      29.97F
MEXIA          LGT RAIN  69  66  92 SE14      29.96F
HEARNE         RAIN      70  68  94 E5        29.96F
CAMERON        HVY RAIN  69  69  98 SE3       29.93F
TEMPLE         MOCLDY    70  64  83 SE9       29.94F
KILLEEN        CLOUDY    68  68 100 SE12      29.92F
KILLEEN-SKYLRK CLOUDY    70  64  83 SE12      29.92F
FORT HOOD      CLOUDY    68  68 100 SE13      29.93S
GATESVILLE     MOCLDY    70  70 100 SE9       29.95F
HAMILTON       CLOUDY    68  68 100 SE15G21   29.93F
LAMPASAS       CLOUDY    70  69  97 SE7       29.92F
$$

TXZ095>097-106>112-122>126-135>138-148>153-164>167-060900-
EAST TEXAS

CITY           SKY/WX    TMP DP  RH WIND       PRES   REMARKS
PARIS          CLOUDY    70  61  73 MISG      30.01R
SULPHUR SPRNGS CLOUDY    70  64  79 S10       30.01S
MOUNT PLEASANT CLOUDY   N/A N/A N/A SE6       30.03S
GILMER         MOCLDY    68  63  83 SE8       30.02S
MINEOLA        CLOUDY    70  66  88 SE7       30.00F
TYLER          CLOUDY    69  64  84 SE14      29.99F
LONGVIEW       PTCLDY    70  63  78 S12       30.01S
MARSHALL       PTCLDY    73  66  78 S5        30.05S
ATHENS         CLOUDY    68  64  88 SE8       29.98F
PALESTINE      MOCLDY    69  66  88 SE7       29.99F
JACKSONVILLE   MOCLDY    69  66  89 SE13G18   30.02F
HENDERSON      CLOUDY    69  65  86 SE9       30.03F
NACOGDOCHES    MOCLDY    70  64  83 SE7       30.02F
LUFKIN         MOCLDY    70  66  87 SE9       29.99F
$$

SUPPLEMENTAL OBSERVATIONS (CENTRAL)

CITY           SKY/WX    TMP DP  RH WIND       PRES   REMARKS
CADDO GRASSLND   N/A     70  66  88 S8          N/A
PAT MAYSE LAKE   N/A     70  66  88 SE15        N/A
GREENVILLE       N/A     70  63  78 S9G20       N/A
MCGREGOR         N/A     70  66  88 SE10        N/A
TEMPLE           N/A     70  68  94 SE8G21      N/A
$$

SUPPLEMENTAL OBSERVATIONS (WEST)

CITY           SKY/WX    TMP DP  RH WIND       PRES   REMARKS
POSSUM KINGDOM   N/A     66  61  82 SE8G16      N/A
LBJ GRASSLAND    N/A     68  64  88 SE12        N/A
GRANBURY         N/A     70  64  83 S12         N/A
$$

SUPPLEMENTAL OBSERVATIONS (EAST)

CITY           SKY/WX    TMP DP  RH WIND       PRES   REMARKS
TEXARKANA        N/A     70  63  78 SE3         N/A
LINDEN           N/A     70  63  78 S2          N/A
GILMER           N/A     70  63  78 S7          N/A
HENDERSON        N/A     70  64  83 SE5         N/A
LUFKIN           N/A     70  66  88 MISG        N/A
N SABINE NF      N/A     66  61  82 MISG        N/A
$$

SUPPLEMENTAL OBSERVATIONS ARE A COLLECTION OF AUTOMATED INSTRUMENTS
THAT ARE MAINTAINED BY A VARIETY OF FEDERAL AND STATE AGENCIES.
CERTAIN ELEMENTS...SUCH AS HUMIDITY VALUES AND SUSTAINED WIND
SPEEDS...MAY BE APPROXIMATED.



USA.gov is the U.S. government's official web portal to all federal, state and local government web resources and services.